This is the latest recevied weather packets stored in our database for station/object KD2RHT-13. If no packets are shown the sender has not sent any weather packets the latest 10 day(s).
| Time | Temp. | Humidity | Pressure | Rain* | Wind** | Luminosity | Snow |
|---|---|---|---|---|---|---|---|
| 1777247613 | 13.89° C | 55% | 1022.8 hPa | 0 mm | - | 5 W/m² | - |
| 1777247312 | 13.89° C | 56% | 1022.8 hPa | 0 mm | - | 8 W/m² | - |
| 1777247009 | 14.44° C | 56% | 1022.8 hPa | 0 mm | - | 10 W/m² | - |
| 1777246706 | 14.44° C | 56% | 1022.8 hPa | 0 mm | - | 13 W/m² | - |
| 1777246402 | 14.44° C | 55% | 1022.8 hPa | 0 mm | - | 16 W/m² | - |
| 1777246099 | 15° C | 53% | 1022.4 hPa | 0 mm | - | 19 W/m² | - |
| 1777245797 | 15° C | 52% | 1022.4 hPa | 0 mm | - | 22 W/m² | - |
| 1777245495 | 15° C | 54% | 1022.4 hPa | 0 mm | - | 25 W/m² | - |
| 1777245190 | 15° C | 53% | 1022.4 hPa | 0 mm | - | 26 W/m² | - |
| 1777244885 | 15.56° C | 54% | 1022.4 hPa | 0 mm | - | 29 W/m² | - |
| 1777244582 | 15.56° C | 54% | 1022.4 hPa | 0 mm | - | 30 W/m² | - |
| 1777244278 | 15.56° C | 54% | 1022.8 hPa | 0 mm | - | 32 W/m² | - |
| 1777243976 | 15.56° C | 53% | 1022.4 hPa | 0 mm | - | 38 W/m² | - |
| 1777243672 | 16.11° C | 54% | 1022.4 hPa | 0 mm | - | 35 W/m² | - |
| 1777243370 | 16.11° C | 55% | 1022.4 hPa | 0 mm | - | 37 W/m² | - |
| 1777243064 | 16.67° C | 54% | 1022.1 hPa | 0 mm | - | 40 W/m² | - |
| 1777242762 | 16.67° C | 54% | 1022.4 hPa | 0 mm | - | 39 W/m² | - |
| 1777242458 | 16.67° C | 55% | 1022.4 hPa | 0 mm | - | 68 W/m² | - |
| 1777242155 | 16.67° C | 53% | 1022.4 hPa | 0 mm | - | 75 W/m² | - |
| 1777241852 | 16.67° C | 54% | 1022.1 hPa | 0 mm | - | 43 W/m² | - |
| 1777241550 | 16.67° C | 53% | 1022.4 hPa | 0 mm | - | 44 W/m² | - |
| 1777241248 | 16.67° C | 54% | 1022.1 hPa | 0 mm | - | 101 W/m² | - |
| 1777240944 | 16.67° C | 52% | 1022.4 hPa | 0 mm | - | 107 W/m² | - |
| 1777240642 | 16.67° C | 52% | 1022.1 hPa | 0 mm | - | 67 W/m² | - |
| 1777240340 | 16.11° C | 55% | 1022.1 hPa | 0 mm | - | 76 W/m² | - |
* Rain latest hour (hover to see other rain measurements)
** Current wind speed in m/s (hover to see current wind gust speed)